TimeCDT,TemperatureF,Dew PointF,Humidity,Sea Level PressureIn,VisibilityMPH,Wind Direction,Wind SpeedMPH,Gust SpeedMPH,PrecipitationIn,Events,Conditions,WindDirDegrees,DateUTC
12:09 AM,71.6,69.8,94,30.12,10.0,NNE,10.4,-,N/A,,Light Drizzle,20,2013-09-17 05:09:00
12:55 AM,71.6,71.6,100,30.07,10.0,North,9.2,-,0.02,,Light Drizzle,10,2013-09-17 05:55:00
1:02 AM,71.6,71.6,100,30.12,10.0,NNE,10.4,-,N/A,Rain,Light Rain,30,2013-09-17 06:02:00
1:03 AM,71.6,71.6,100,30.12,10.0,NNE,10.4,-,N/A,,Mostly Cloudy,30,2013-09-17 06:03:00
1:13 AM,71.6,71.6,100,30.13,10.0,NE,8.1,-,N/A,Thunderstorm,Mostly Cloudy,40,2013-09-17 06:13:00
1:20 AM,71.6,69.8,94,30.14,10.0,ENE,5.8,-,N/A,Rain-Thunderstorm,Light Rain,70,2013-09-17 06:20:00
1:44 AM,69.8,69.8,100,30.12,10.0,ENE,12.7,-,N/A,,Mostly Cloudy,60,2013-09-17 06:44:00
1:58 AM,69.6,69.6,100,30.07,10.0,ENE,12.7,-,0.01,,Mostly Cloudy,60,2013-09-17 06:58:00
2:58 AM,69.6,69.6,100,30.05,10.0,NNE,6.9,-,N/A,,Overcast,30,2013-09-17 07:58:00
3:58 AM,70.7,69.8,97,30.02,10.0,Calm,Calm,-,N/A,,Overcast,0,2013-09-17 08:58:00
4:58 AM,70.3,69.1,96,30.02,10.0,West,4.6,-,N/A,,Overcast,280,2013-09-17 09:58:00
5:58 AM,70.2,69.4,98,30.03,10.0,WNW,5.8,-,N/A,,Mostly Cloudy,300,2013-09-17 10:58:00
6:58 AM,69.4,69.4,100,30.04,10.0,NW,4.6,-,N/A,,Clear,310,2013-09-17 11:58:00
7:58 AM,69.6,69.6,100,30.06,10.0,NNW,1.2,-,N/A,,Scattered Clouds,330,2013-09-17 12:58:00
8:58 AM,71.4,70.5,97,30.07,10.0,Calm,Calm,-,N/A,,Mostly Cloudy,0,2013-09-17 13:58:00
9:58 AM,73.9,69.6,86,30.08,10.0,SSE,6.9,-,N/A,,Scattered Clouds,160,2013-09-17 14:58:00
10:58 AM,76.6,70.3,81,30.06,4.0,South,5.8,-,N/A,,Haze,180,2013-09-17 15:58:00
11:58 AM,78.8,70.2,75,30.06,10.0,Variable,4.6,-,N/A,,Partly Cloudy,0,2013-09-17 16:58:00
12:58 PM,83.5,70.2,64,30.03,10.0,South,8.1,-,N/A,,Scattered Clouds,180,2013-09-17 17:58:00
1:58 PM,87.3,68.2,53,30.00,10.0,SSW,4.6,-,N/A,,Scattered Clouds,200,2013-09-17 18:58:00
2:08 PM,86.0,66.2,51,30.04,10.0,SSW,10.4,-,N/A,Thunderstorm,Mostly Cloudy,210,2013-09-17 19:08:00
2:13 PM,86.0,68.0,55,30.03,10.0,SW,9.2,-,N/A,Thunderstorm,Mostly Cloudy,220,2013-09-17 19:13:00
2:17 PM,86.0,68.0,55,30.03,10.0,SSW,9.2,-,N/A,,Light Drizzle,210,2013-09-17 19:17:00
2:43 PM,84.2,69.8,62,30.02,10.0,South,8.1,-,N/A,Thunderstorm,Partly Cloudy,190,2013-09-17 19:43:00
2:58 PM,84.7,67.8,57,29.98,10.0,South,8.1,-,0.00,,Partly Cloudy,180,2013-09-17 19:58:00
3:23 PM,82.4,69.8,66,30.02,10.0,SSE,19.6,24.2,N/A,,Mostly Cloudy,160,2013-09-17 20:23:00
3:31 PM,78.8,69.8,74,30.02,10.0,SE,19.6,24.2,N/A,Rain,Light Rain,140,2013-09-17 20:31:00
3:40 PM,78.8,69.8,74,30.01,10.0,SE,17.3,-,N/A,,Overcast,130,2013-09-17 20:40:00
3:45 PM,80.6,69.8,70,30.01,10.0,SE,19.6,-,N/A,,Mostly Cloudy,140,2013-09-17 20:45:00
3:58 PM,81.0,70.2,70,29.97,10.0,SSE,21.9,-,0.00,,Scattered Clouds,150,2013-09-17 20:58:00
4:48 PM,75.2,68.0,78,30.01,10.0,South,11.5,-,N/A,Thunderstorm,Light Drizzle,170,2013-09-17 21:48:00
4:58 PM,74.8,69.1,82,29.98,10.0,SSE,11.5,-,0.00,,Light Drizzle,160,2013-09-17 21:58:00
5:55 PM,75.2,73.4,94,29.95,10.0,South,8.1,-,N/A,Rain,Light Rain,170,2013-09-17 22:55:00
6:58 PM,74.7,74.7,100,29.96,10.0,South,6.9,-,0.01,,Light Drizzle,190,2013-09-17 23:58:00
7:00 PM,75.2,75.2,100,29.99,10.0,South,6.9,-,N/A,,Light Drizzle,190,2013-09-18 00:00:00
7:58 PM,75.2,75.2,100,29.95,10.0,ESE,6.9,-,N/A,,Light Drizzle,110,2013-09-18 00:58:00
8:58 PM,75.2,75.2,100,29.95,10.0,ENE,3.5,-,N/A,,Mostly Cloudy,70,2013-09-18 01:58:00
9:58 PM,74.8,74.8,100,29.95,10.0,SSE,8.1,-,N/A,,Overcast,150,2013-09-18 02:58:00
10:58 PM,75.0,75.0,100,29.96,10.0,SSE,6.9,-,N/A,,Overcast,150,2013-09-18 03:58:00
11:58 PM,74.3,73.8,98,29.95,10.0,SSE,5.8,-,N/A,,Mostly Cloudy,150,2013-09-18 04:58:00